Location: Moscow
(55.7500°N, 37.5830°E)
Time: 20:03:11
(UTC+03:00)

Transit 2A Rocket - Pass Details

Date: 30 November 2021
Orbit: 584 x 917 km, 66.7° (Epoch: 23 January)

Event Time Altitude Azimuth Distance (km) Brightness Sun altitude
Rises 19:11:15 0° 311° (NW) 3,565 9.1 -25.2°
Reaches altitude 10° 19:15:04 10° 288° (WNW) 2,600 8.6 -25.7°
Maximum altitude 19:18:03 14° 258° (WSW) 2,282 8.3 -26.1°
Drops below altitude 10° 19:20:59 10° 228° (SW) 2,531 8.3 -26.6°
Sets 19:24:37 0° 205° (SSW) 3,406 8.7 -27.1°
